Location: Hanover
(39.8010°N, 76.9830°W)
Time: 14:52:48
(UTC-04:00)

Tiangong - Visible Passes

Search period start: 29 May 2023 00:00
Search period end: 08 June 2023 00:00
Orbit: 386 x 392 km, 41.5° (Epoch: 29 May)

Date Brightness Start Highest point End Pass type
(mag) Time Alt. Az. Time Alt. Az. Time Alt. Az.
30 May -0.1 04:58:22 10° SSW 05:00:45 19° SSE 05:03:09 10° E visible
31 May 0.4 04:02:25 11° SSE 04:02:51 11° SE 04:04:00 10° ESE visible
01 Jun -1.1 04:39:12 16° SSW 04:41:17 34° SSE 04:44:13 10° E visible
02 Jun -0.3 03:43:38 21° SE 03:43:38 21° SE 03:45:49 10° E visible
03 Jun -1.9 04:20:20 26° SW 04:21:54 58° SSE 04:25:03 10° E visible
04 Jun -0.8 03:24:42 30° ESE 03:24:42 30° ESE 03:26:50 10° E visible
04 Jun -1.9 04:57:30 10° W 05:00:42 72° N 05:03:54 10° ENE visible
05 Jun -2.2 04:01:21 35° WSW 04:02:34 89° SE 04:05:47 10° ENE visible
06 Jun -0.7 03:05:42 32° E 03:05:42 32° E 03:07:39 10° E visible
06 Jun -1.7 04:38:16 10° W 04:41:28 62° N 04:44:39 10° E visible
07 Jun -1.9 03:42:22 41° WNW 03:43:18 69° N 03:46:30 10° ENE visible
